Regional Weather Roundup
Issued by NWS

Home | Current Version | Previous Version | Text Only | Print | Product List | Glossary Off
Versions: 1 2 3 4 5 6 7 8 9 10 11 12 13 14 15 16 17 18 19 20 21 22 23 24 25 26 27 28 29 30 31 32 33 34 35 36 37 38 39 40 41 42 43 44 45 46 47 48 49 50

000
ASUS43 KBIS 011810
RWRND

NORTH DAKOTA REGIONAL WEATHER ROUNDUP
NATIONAL WEATHER SERVICE BISMARCK ND
1200 PM CST SUN FEB 01 2015

NOTE: "FAIR" INDICATES FEW OR NO CLOUDS BELOW 12,000 FEET WITH NO
SIGNIFICANT WEATHER AND/OR OBSTRUCTIONS TO VISIBILITY.


NDZ001>003-009>011-017-011900-
NORTHWEST NORTH DAKOTA

CITY           SKY/WX    TMP DP  RH WIND       PRES   REMARKS
WILLISTON      SUNNY      0  -8  69 SW8       30.44F WCI -14
6HR MIN TEMP: -19; 6HR MAX TEMP:   0;

MINOT          SUNNY     -2 -16  51 W3        30.47F
MINOT AFB      SUNNY     -2 -13  59 W3        30.47F
$$

NDZ018>021-031>035-040>046-011900-
SOUTHWEST NORTH DAKOTA

CITY           SKY/WX    TMP DP  RH WIND       PRES   REMARKS
BISMARCK       SUNNY      0 -15  49 NW5       30.52F WCI -10
6HR MIN TEMP:  -8; 6HR MAX TEMP:   0;

DICKINSON      SUNNY     -3 -10  72 W6        30.37F WCI -15
GARRISON         N/A     -4 -15  59 NW5       30.46F WCI -15
6HR MIN TEMP: -16; 6HR MAX TEMP:  -4;

HETTINGER ARPT SUNNY      1  -4  79 NW6       30.39F WCI -10
$$

NDZ004>008-012>016-024-026-027-054-011900-
NORTHEAST NORTH DAKOTA

CITY           SKY/WX    TMP DP  RH WIND       PRES   REMARKS
GRAND FORKS    MOSUNNY   -4 -16  56 N9        30.56F WCI -20
GRND FRKS AFB  SUNNY     -4 -18  51 NE8       30.56F WCI -19
DEVILS LAKE    SUNNY     -6 -18  54 NW7       30.50S WCI -20
$$

NDZ022-023-025-028>030-036>039-047>053-011900-
SOUTHEAST NORTH DAKOTA

CITY           SKY/WX    TMP DP  RH WIND       PRES   REMARKS
FARGO          MOSUNNY    0 -13  54 N16       30.51F WCI -20
6HR MIN TEMP:  -7; 6HR MAX TEMP:   0;

JAMESTOWN      SUNNY     -1 -14  53 N12       30.48S WCI -18
$$




USA.gov is the U.S. government's official web portal to all federal, state and local government web resources and services.